Location: Limerick
(52.6650°N, 8.6230°W)
Time: 10:30:39
(UTC+00:00)

ISS - Pass Details

Date: 21 March 2017
Orbit: 401 x 407 km, 51.6° (Epoch: 18 November)

Event Time Altitude Azimuth Distance (km) Brightness Sun altitude
Exits shadow 03:49:24 13° 124° (ESE) 1,330 -1.0 -24.2°
Drops below altitude 10° 03:49:53 10° 121° (ESE) 1,518 -0.7 -24.2°
Enters shadow 04:51:10 -58° 303° (WNW) 11,296 3.4 -16.1°
